GFSGBSN_925_temp_267.txt.gz
Temp
7 6 6 6 6 6 6 6 6 6 6 6 6 7 8 8 9 9 10 11 12 12 13 13 14 14 15 15 16 17 17 17 18 18 19 19 18 17 16 17 18 20 21 21 22 22 22
6 6 6 6 6 6 6 5 6 6 6 6 6 7 9 9 9 10 11 11 12 12 13 14 14 14 13 13 17 17 17 18 18 18 18 18 17 17 16 17 17 19 19 19 20 20 21
6 6 6 6 6 6 6 6 6 6 6 6 7 8 9 9 9 10 11 12 12 13 13 14 14 14 15 15 16 17 17 18 18 18 18 18 18 16 16 16 18 18 17 18 19 19 20
6 6 6 6 6 6 6 6 6 6 6 6 7 8 9 9 10 9 11 12 12 13 13 14 15 15 14 16 17 17 17 17 17 18 18 18 18 17 16 17 17 16 16 15 19 20 20
6 6 6 6 6 6 6 6 6 6 6 6 7 8 9 9 9 10 12 12 13 14 15 15 16 16 15 17 17 17 17 17 17 18 19 18 18 16 16 15 14 16 14 16 18 20 19
6 6 6 6 6 5 5 6 6 5 6 6 7 8 9 9 9 10 12 12 13 15 15 15 16 14 16 16 17 17 17 17 17 17 17 17 15 15 14 13 13 14 15 16 16 18 19
6 5 5 5 5 5 5 5 5 5 5 6 7 8 9 10 10 11 12 12 13 12 16 15 16 16 17 17 17 17 17 17 17 16 14 16 13 13 14 16 16 16 16 15 16 18 17
5 5 5 5 5 5 5 5 5 5 5 6 7 7 8 10 11 12 12 12 12 12 14 17 16 16 17 17 16 17 17 15 14 13 14 13 12 15 17 17 16 16 15 15 16 18 17
5 5 5 5 5 5 5 5 5 5 5 6 7 8 9 10 10 11 11 12 12 12 11 16 17 17 17 18 16 17 16 15 14 13 13 12 14 16 16 15 15 15 15 15 15 16 16
5 5 5 5 5 5 5 5 5 5 6 6 7 8 9 9 10 12 11 10 11 11 10 15 16 16 18 18 16 18 17 15 14 13 14 13 15 15 14 14 15 13 15 15 14 12 11
5 5 5 5 5 5 5 5 5 5 6 7 7 8 8 9 9 10 10 10 11 11 9 15 16 17 18 16 16 16 17 16 14 13 12 11 13 13 13 14 14 13 15 14 13 12 12
5 5 5 5 5 5 5 5 5 5 6 7 7 8 9 10 10 9 9 10 10 9 7 15 17 16 16 16 16 16 15 16 15 13 13 11 13 13 12 13 14 15 13 13 12 11 8
5 5 5 5 5 5 5 5 5 5 6 7 7 8 9 9 9 9 9 10 7 8 15 15 16 16 16 14 15 14 14 10 8 5 7 10 12 13 12 12 13 12 10 6 8 8 8
5 5 5 5 5 5 5 5 5 5 6 7 7 8 8 9 9 9 9 7 6 12 14 16 16 16 15 14 14 14 13 9 10 9 5 6 6 11 12 12 11 11 11 8 8 8 9
5 5 5 4 4 5 5 5 5 5 6 7 8 9 9 9 9 9 7 5 6 12 15 15 15 15 16 14 14 13 13 12 11 9 5 5 8 11 12 12 11 10 7 10 7 10 9
5 5 4 4 4 5 5 5 5 5 6 6 7 8 9 9 9 9 5 8 12 14 15 15 14 14 13 13 12 12 12 13 11 11 9 9 6 10 11 11 11 10 11 7 4 5 3
5 5 4 4 4 5 5 5 5 5 6 6 6 8 9 10 10 4 3 7 13 14 14 13 13 13 13 12 12 12 13 12 12 11 11 9 4 7 9 8 7 8 6 4 5 6 7
4 4 4 4 4 5 5 5 5 5 6 7 8 6 9 10 4 4 5 13 11 13 13 13 12 12 12 11 11 11 12 12 12 12 9 8 2 4 7 9 9 6 5 7 1 2 4
5 4 4 4 4 5 5 5 5 5 6 6 6 7 9 9 2 4 11 12 12 12 13 12 12 12 12 11 10 11 11 13 13 11 10 9 3 0 6 7 7 7 7 5 3 4 5
4 4 4 4 4 5 5 5 5 5 5 6 5 3 3 3 5 9 11 11 11 11 12 13 12 12 11 10 11 10 10 12 11 11 12 9 5 3 4 2 2 1 3 4 3 -0 5
4 4 4 4 4 4 5 5 5 5 5 5 4 5 5 3 3 8 11 12 11 10 11 12 11 11 10 10 8 8 9 9 10 10 9 8 2 2 3 6 8 7 7 8 5 5 4
4 4 4 4 4 4 5 5 5 5 6 6 1 4 6 7 8 9 9 9 11 12 11 10 9 10 10 8 8 5 7 7 8 8 8 7 3 6 6 7 8 8 9 8 9 10 9
4 4 4 4 4 4 4 5 5 5 5 7 8 9 5 6 8 6 6 10 11 12 11 12 11 9 9 8 8 7 7 7 7 6 6 6 3 3 3 7 7 4 8 10 10 8 7
4 4 4 4 4 4 4 5 5 5 5 5 6 7 3 3 6 7 11 11 11 11 9 11 10 9 8 8 8 7 7 7 7 7 7 5 5 3 4 6 1 8 12 10 9 7 8
3 4 4 4 4 4 4 4 5 5 5 5 6 6 2 3 5 8 10 10 11 11 10 9 9 8 8 7 2 0 1 3 5 8 8 7 5 2 3 4 7 10 10 9 9 8 9
3 3 3 4 4 4 4 4 4 4 5 5 5 6 5 2 3 7 7 10 5 6 7 10 8 8 7 1 -1 -0 1 4 4 8 10 10 8 6 2 3 2 6 9 11 10 6 8
2 2 2 3 3 4 4 4 4 4 4 4 5 5 4 1 4 6 4 5 8 6 4 6 8 5 5 -1 -2 1 4 9 7 5 6 6 3 3 1 2 7 10 11 12 7 5 8
2 2 2 2 3 3 4 4 4 4 4 4 4 5 5 1 3 6 6 5 4 4 3 4 3 2 -1 -1 -1 1 3 4 6 8 8 7 5 1 2 1 4 11 11 9 8 9 8
2 2 2 2 2 3 3 4 4 4 4 4 4 4 4 3 2 4 5 6 5 6 3 4 4 4 1 -0 0 2 2 2 5 3 9 5 6 5 5 5 9 10 10 10 10 8 8

GFSGBSN_925_temp_273.txt.gz
Temp
7 7 6 6 6 6 5 5 5 6 7 8 10 10 10 10 10 11 12 13 13 13 14 14 16 16 16 13 14 16 17 17 17 17 17 15 14 14 14 15 15 15 16 16 16 16 17
7 6 6 6 6 6 5 5 5 6 7 8 9 9 9 10 11 11 12 12 13 14 14 15 17 17 16 12 16 17 17 17 17 17 17 16 15 15 14 14 15 15 15 15 16 17 17
6 6 6 6 6 5 5 5 6 6 7 8 9 9 9 10 10 11 12 12 13 14 14 15 16 17 14 14 16 17 17 17 18 17 16 17 17 14 15 15 15 15 15 14 16 15 16
6 6 6 5 6 6 5 5 6 6 7 7 9 9 10 10 10 11 12 12 13 14 15 16 17 16 14 16 17 17 17 18 18 18 17 17 17 15 14 15 13 13 12 12 15 15 16
6 6 6 5 6 6 6 6 6 7 7 8 9 10 10 10 10 11 12 13 14 15 15 16 16 15 14 16 16 17 17 17 17 18 18 18 16 12 12 11 10 10 11 12 13 14 13
6 6 6 6 6 6 6 6 6 7 7 8 9 9 10 10 11 12 13 14 15 16 16 16 16 12 15 15 16 17 16 16 15 15 14 12 10 12 10 9 10 11 12 13 12 12 12
6 6 6 6 5 5 5 6 6 6 7 8 9 10 10 11 12 13 14 14 12 11 15 13 14 13 15 16 16 16 16 16 14 12 11 11 10 10 11 12 13 13 12 11 12 13 12
6 6 5 5 5 5 5 5 6 6 7 8 9 9 10 11 12 13 13 10 10 11 12 15 15 15 16 16 14 15 16 13 11 10 11 9 9 12 13 12 11 11 11 10 12 13 13
7 5 5 5 5 5 5 5 6 7 7 8 9 10 11 11 11 12 10 9 10 11 10 15 15 16 16 16 14 14 15 13 11 10 10 9 11 12 12 11 11 11 10 10 10 11 11
6 5 5 5 5 5 5 5 6 6 7 8 9 10 10 11 12 10 10 10 11 11 7 13 15 16 16 15 14 15 15 14 12 11 11 10 11 11 10 10 10 9 11 11 11 10 9
6 5 5 5 5 5 5 5 6 6 7 8 8 9 10 12 10 9 9 10 11 11 7 13 15 16 15 14 14 14 14 12 11 10 9 9 9 9 9 10 11 10 10 10 10 9 9
5 5 5 5 5 5 5 5 6 6 7 8 8 9 10 10 9 8 9 11 11 6 7 13 15 15 13 13 14 13 12 12 11 9 9 9 11 10 10 10 10 10 9 9 8 8 6
5 5 5 5 5 5 5 5 6 6 8 8 8 9 10 9 8 9 10 10 7 6 11 13 14 14 13 13 13 12 10 8 7 4 6 8 9 10 10 8 9 8 6 2 5 3 5
5 5 5 5 5 5 5 5 5 6 8 8 9 9 9 9 9 9 10 6 6 8 11 14 14 13 12 13 13 10 9 6 8 6 4 5 6 8 9 9 8 8 7 1 0 4 7
5 5 5 5 5 5 5 5 5 6 7 8 9 9 9 8 9 10 5 3 5 9 13 13 13 13 12 12 11 11 10 8 8 8 5 3 7 9 9 9 8 7 4 8 4 7 6
5 5 5 5 5 5 5 5 5 6 7 8 9 8 9 9 9 9 4 7 10 12 13 13 12 12 10 11 11 11 10 10 9 9 7 7 6 8 9 8 8 7 7 3 0 0 2
5 5 5 5 5 5 5 5 5 6 7 8 9 5 8 9 10 3 4 6 11 12 12 12 11 11 10 10 10 10 10 10 10 9 8 6 2 7 8 6 6 5 4 3 2 3 3
5 5 5 5 5 5 5 5 5 6 7 8 7 4 8 9 4 3 3 8 12 11 11 11 11 11 10 10 10 10 10 10 10 9 8 6 -0 4 7 7 7 7 5 4 -2 -0 2
5 5 5 5 5 5 5 5 5 6 7 7 4 4 8 9 3 3 7 10 11 11 11 11 11 11 11 9 9 10 9 9 9 9 7 6 1 -2 5 5 5 2 1 -2 -3 1 4
5 5 5 5 5 5 5 5 5 6 7 8 3 3 2 2 3 7 8 9 9 10 10 10 10 10 9 9 9 8 9 9 9 9 11 7 3 1 1 1 -0 -0 -3 -3 -1 -2 1
5 5 5 5 5 5 5 5 5 6 6 7 1 2 4 3 4 6 8 9 9 9 10 10 10 9 9 8 8 8 8 8 8 9 7 5 1 0 1 4 4 5 4 5 -1 2 3
4 4 5 5 5 5 5 5 5 6 6 7 3 3 3 5 7 8 7 8 9 9 9 9 9 9 8 7 7 6 7 7 7 7 6 4 2 5 3 6 5 6 6 6 6 6 5
4 4 4 4 4 5 5 5 5 5 6 6 5 5 4 3 5 6 5 8 9 9 10 9 8 7 7 7 7 7 6 6 7 6 5 5 2 1 1 5 5 2 6 6 8 8 6
4 4 4 4 4 4 4 4 5 5 6 6 5 5 3 3 4 6 8 10 10 9 9 9 8 8 8 7 7 6 5 5 4 5 6 4 3 -1 -1 4 -1 7 8 8 7 7 6
4 4 4 4 4 4 4 4 5 5 6 6 6 6 2 1 4 7 9 9 8 9 8 8 7 7 6 5 2 1 1 3 4 5 4 5 3 -3 -1 1 5 7 8 8 7 7 7
4 4 4 4 4 4 4 4 4 5 5 6 6 6 4 2 3 6 7 7 4 4 5 6 5 5 3 -1 -2 0 3 4 5 7 6 5 5 2 -1 -1 -0 5 7 8 7 6 7
4 4 4 4 4 4 4 4 4 5 5 6 5 6 6 0 2 5 3 4 5 3 2 4 5 5 3 -4 -3 0 3 6 6 5 4 4 1 2 1 0 5 7 8 9 6 4 7
4 4 4 4 4 4 4 4 4 4 5 5 4 5 6 -2 1 4 5 5 3 2 2 3 3 1 -2 -1 -1 -1 2 4 5 7 7 5 2 -2 -1 -3 2 8 8 7 6 7 8
3 3 3 3 4 4 4 4 4 4 4 5 4 4 5 4 2 4 5 5 6 5 1 1 3 2 -0 -2 -3 -1 1 1 4 4 7 5 5 3 3 3 5 7 9 8 7 6 7

GFSGBSN_925_temp_276.txt.gz
Temp
7 7 7 6 6 6 5 6 6 6 6 6 8 8 10 12 13 13 13 13 14 14 14 14 16 16 16 12 14 16 17 17 18 17 16 15 13 14 13 15 15 15 14 15 15 15 17
8 7 6 6 6 6 5 6 6 6 6 7 8 8 10 11 13 13 13 13 14 14 14 15 16 16 15 11 16 16 17 17 18 17 16 16 14 14 13 14 14 15 15 15 14 14 16
7 6 6 6 6 6 6 6 6 6 6 7 8 10 11 12 13 13 13 13 14 14 15 15 15 16 14 14 16 16 17 16 18 17 16 16 16 15 14 15 14 14 14 13 13 13 14
7 6 6 6 6 5 6 6 6 6 6 7 8 10 11 12 13 13 13 14 14 14 15 16 16 16 13 16 16 16 18 17 17 18 17 16 16 13 13 14 12 12 11 11 13 13 14
6 6 6 6 5 6 6 6 6 6 6 7 9 10 11 11 12 13 14 14 15 15 16 16 16 15 14 16 16 16 16 16 17 17 16 16 14 11 11 10 9 9 10 12 12 12 13
6 6 6 5 5 6 6 6 6 6 7 8 9 10 11 12 13 14 14 15 16 16 16 16 15 12 14 14 16 16 16 15 14 14 12 10 9 10 10 9 8 11 10 11 11 11 11
6 6 6 5 5 5 6 6 6 6 7 8 9 11 11 12 13 14 15 15 13 10 14 12 13 12 15 16 16 15 15 15 12 11 10 10 10 8 9 10 11 11 10 10 11 12 11
6 6 6 6 5 5 5 6 6 6 7 9 10 11 11 12 13 14 15 9 9 11 12 14 14 14 16 16 13 14 16 12 10 10 11 8 8 10 11 10 10 10 9 9 9 11 12
6 6 6 5 5 5 5 5 6 6 7 9 10 11 11 12 13 14 11 9 10 11 10 14 14 15 15 15 12 12 14 12 10 9 9 7 10 11 10 9 9 9 8 8 9 10 10
6 6 5 5 5 5 5 5 6 7 7 8 10 10 11 12 13 10 9 10 11 12 7 12 14 15 15 14 13 13 13 12 10 9 9 9 10 10 9 9 9 10 9 9 9 9 8
6 6 5 5 5 5 5 6 6 7 7 8 9 10 11 11 11 9 10 11 11 11 8 12 14 16 13 13 13 12 13 11 9 8 8 9 8 8 8 9 9 9 9 8 9 8 8
7 6 5 5 4 5 5 6 6 7 8 8 9 10 10 11 10 9 10 11 11 7 8 13 14 14 13 12 13 12 10 11 10 8 8 8 10 9 9 9 10 8 8 7 7 6 6
6 6 5 4 5 5 5 6 6 7 8 8 8 9 10 10 9 9 11 11 8 7 11 12 13 13 13 12 11 10 9 7 6 4 6 8 8 9 9 7 8 6 5 1 4 3 5
6 5 5 5 5 5 5 6 6 7 8 8 8 9 9 9 9 10 11 6 8 8 10 13 13 12 12 12 12 9 8 5 8 6 3 5 6 8 8 8 7 7 6 -0 1 4 5
6 5 5 5 5 5 5 5 6 7 8 8 8 9 8 8 9 11 5 3 7 9 12 12 13 12 12 12 11 10 9 8 8 8 5 4 7 8 8 8 7 7 4 6 3 6 6
5 5 5 5 5 5 5 5 6 7 8 8 9 8 8 8 9 11 4 7 10 10 13 13 12 11 10 11 11 10 9 9 9 9 6 7 6 8 8 8 7 7 6 3 -2 -2 -1
5 5 5 5 5 5 5 5 6 7 8 8 9 4 8 9 10 4 4 6 10 11 12 12 11 10 10 10 9 9 9 10 9 8 7 5 2 7 7 6 6 5 4 2 1 2 -1
5 5 5 5 5 5 5 5 6 7 8 9 7 3 8 8 4 1 3 8 11 11 11 11 10 10 9 9 9 9 9 9 9 7 7 5 -0 4 7 6 6 6 5 4 -2 -2 1
5 5 5 5 5 5 5 5 6 7 8 8 4 4 8 8 3 2 6 10 11 11 11 11 10 10 10 9 9 9 8 8 8 8 6 5 2 -2 5 5 4 2 -1 -4 -5 1 4
5 5 5 5 5 5 5 5 6 6 7 8 3 3 2 3 3 6 8 9 9 10 10 10 9 9 9 9 8 8 8 8 9 9 9 7 3 1 2 1 -1 0 -3 -5 -2 -3 0
5 5 5 5 5 4 5 5 5 6 7 8 1 2 4 3 4 6 8 9 9 9 10 10 9 9 9 8 8 8 8 7 8 9 6 5 1 1 1 3 4 5 2 2 -0 1 2
5 5 5 4 5 5 5 5 5 6 6 7 3 3 2 4 6 7 7 8 8 9 9 9 9 8 8 7 7 6 7 7 7 7 6 4 2 4 3 5 4 5 5 5 5 4 3
5 5 5 4 4 5 5 5 5 6 7 6 5 5 4 3 5 6 6 8 9 9 9 9 8 7 7 8 7 8 7 7 7 6 5 4 2 1 1 5 5 2 6 6 7 6 6
5 4 4 4 4 4 5 5 5 6 6 7 6 6 3 3 5 6 8 9 9 9 8 8 7 8 7 6 6 6 5 5 5 5 5 4 3 -1 -1 4 -0 7 7 7 6 6 6
4 4 4 4 4 4 4 5 5 5 6 7 6 6 2 2 4 7 8 8 7 7 7 7 6 5 6 5 2 1 1 3 4 4 4 4 3 -1 -1 1 5 8 7 6 6 7 7
4 4 4 4 4 4 4 4 5 5 6 7 6 7 5 3 4 6 7 7 4 4 4 5 5 5 3 -1 -1 -0 2 2 5 6 5 4 4 2 -1 -2 0 6 7 8 7 6 6
4 4 4 4 4 4 4 4 5 5 6 7 5 6 6 1 2 5 4 5 5 4 2 4 5 4 2 -5 -4 -0 2 6 5 5 3 3 1 2 -3 -1 4 7 7 8 6 3 7
4 4 4 4 4 4 4 4 4 5 5 6 4 6 7 0 1 4 5 4 3 2 3 2 2 0 -3 -2 -1 -2 1 2 4 7 5 3 1 -2 -1 -4 1 6 6 7 6 6 6
4 4 4 4 4 4 4 4 4 5 5 6 4 5 6 4 2 3 4 5 5 5 1 -1 3 1 -1 -3 -4 -2 -0 -1 4 2 6 4 5 2 2 3 5 6 7 7 6 6 6

GFSGBSN_925_temp_279.txt.gz
Temp
8 8 7 7 6 6 6 5 6 8 9 10 9 9 9 10 11 12 14 16 15 15 15 16 16 17 17 14 15 16 17 18 18 17 16 16 16 16 17 17 18 17 16 17 16 18 18
8 7 7 6 6 6 6 5 7 7 9 10 9 9 10 11 12 13 14 15 15 14 16 16 16 16 15 14 15 16 17 18 17 17 15 15 16 16 16 15 17 16 16 16 16 16 17
8 7 6 6 6 6 6 6 7 8 9 9 9 9 10 11 12 13 14 15 15 15 16 16 16 15 16 15 15 17 16 17 17 16 15 15 16 17 16 16 15 15 16 16 15 16 16
7 7 6 6 6 6 6 6 7 7 9 10 10 10 10 12 12 13 14 15 15 16 16 16 16 16 15 16 16 17 17 16 17 17 17 15 16 14 14 14 14 14 14 15 14 15 16
7 6 6 6 6 6 6 7 7 8 9 10 10 10 10 12 13 14 15 16 16 16 17 17 16 15 14 16 15 15 15 16 16 16 15 15 15 13 14 14 14 14 13 13 14 14 15
7 6 6 6 5 6 6 6 7 8 9 9 10 10 10 12 13 14 15 16 16 17 16 16 15 14 15 15 15 15 15 15 14 14 14 13 13 14 15 15 14 13 13 13 13 14 14
7 6 6 6 5 6 6 6 7 7 9 10 10 10 11 12 14 15 16 16 15 13 14 13 13 13 14 15 15 14 14 14 12 13 12 13 13 11 12 13 13 13 12 12 12 13 13
7 6 6 6 5 5 5 6 7 7 9 10 10 10 11 13 14 15 16 10 11 14 13 14 14 14 15 15 14 14 14 13 12 11 11 12 11 11 12 12 12 12 12 11 12 12 13
7 6 6 6 5 5 5 6 7 7 9 10 10 10 11 12 14 15 13 10 12 13 13 14 14 15 15 14 12 13 13 11 12 11 11 11 11 12 11 11 12 11 11 10 11 12 12
6 6 6 6 5 5 5 6 7 7 9 10 10 11 11 12 13 11 10 11 12 12 11 13 14 15 14 13 13 12 12 12 11 10 10 10 10 10 10 10 10 11 10 10 11 11 12
7 6 6 5 5 5 5 6 7 7 9 10 10 11 11 11 12 10 11 11 12 12 13 13 14 15 13 14 13 13 12 12 10 9 11 9 10 10 10 9 10 10 10 10 10 11 11
6 6 6 5 5 5 5 6 6 7 8 9 9 10 11 11 11 10 11 12 12 11 11 13 14 14 13 13 12 12 11 11 10 10 10 9 10 10 10 9 9 9 10 10 9 10 11
6 6 6 5 5 5 5 6 7 7 8 9 9 10 11 10 9 10 11 11 10 11 11 12 13 13 12 12 11 10 10 9 10 9 9 10 9 9 9 9 10 10 9 10 11 11 11
6 7 6 5 5 5 6 6 6 7 8 8 9 10 9 9 9 10 11 9 11 9 11 13 12 12 12 12 11 10 10 10 9 8 8 9 10 9 9 9 8 9 8 8 11 10 10
6 6 6 5 5 5 5 6 6 7 8 8 9 9 9 8 9 10 8 8 9 10 12 12 13 12 12 12 11 10 9 9 9 9 9 8 8 9 9 8 8 8 8 7 7 7 7
6 6 5 5 5 5 5 6 6 7 8 8 9 8 8 8 9 10 6 9 11 11 12 13 12 12 11 11 11 11 10 9 9 9 7 8 8 8 8 9 8 9 8 8 5 7 7
6 5 5 5 5 5 5 6 6 7 8 8 9 6 8 9 10 6 7 8 10 11 12 13 11 11 11 11 10 10 10 9 9 8 8 7 7 8 8 8 8 8 7 5 5 5 7
6 5 5 5 5 5 5 5 6 7 8 8 7 6 7 8 6 2 6 9 11 10 11 11 10 10 11 10 10 10 10 10 9 9 9 6 5 8 8 7 7 8 7 7 6 5 5
6 5 5 5 5 5 5 5 6 7 8 8 4 5 7 8 6 6 7 9 10 11 11 11 10 10 10 10 10 9 9 8 8 9 8 7 6 7 8 7 6 6 4 -0 1 4 6
5 5 5 5 5 5 5 5 6 7 8 9 4 5 4 4 4 7 9 9 9 10 10 10 9 10 9 9 9 8 8 9 9 9 9 8 6 6 10 8 5 4 2 -0 3 5 6
5 5 5 5 5 5 5 5 6 7 7 8 3 4 5 5 6 7 8 9 9 9 10 10 9 10 10 8 8 8 8 8 8 9 6 8 6 4 4 6 6 7 5 4 2 5 6
5 5 5 5 5 5 5 5 6 6 7 7 3 4 3 5 6 8 8 9 9 9 10 9 9 9 9 8 9 7 8 8 8 7 7 5 6 5 5 7 6 6 7 7 6 7 6
5 5 5 5 5 5 5 5 5 6 7 6 4 5 5 4 6 7 7 8 9 9 9 9 9 8 8 8 8 7 8 7 8 8 7 6 5 5 6 6 6 6 7 8 8 8 7
5 5 4 4 5 5 5 5 5 6 7 8 6 6 4 5 6 7 8 9 9 9 9 8 8 8 7 6 6 7 6 6 6 7 7 6 5 4 5 5 6 10 9 8 8 8 8
5 5 4 4 4 5 5 5 5 6 7 8 7 6 4 5 6 7 8 8 7 7 6 6 6 5 6 6 5 5 4 5 5 6 6 6 6 4 5 5 8 10 8 8 8 10 9
5 4 4 4 4 4 5 5 5 6 7 8 7 7 5 5 6 7 7 8 6 5 5 5 5 4 4 3 4 5 7 5 6 5 5 6 7 6 3 4 6 9 8 9 9 9 10
4 4 4 4 4 4 4 5 5 6 7 8 6 7 6 3 4 5 6 6 5 5 4 5 5 5 4 2 4 5 6 7 7 5 4 4 4 4 3 4 6 8 9 9 8 9 8
4 4 4 4 4 4 4 5 5 6 6 8 5 7 7 2 3 4 5 5 4 4 5 4 5 4 1 3 4 3 5 6 6 7 6 5 4 3 3 3 4 8 7 8 10 8 9
4 4 4 4 4 4 4 4 5 5 6 7 5 6 7 4 3 3 4 5 5 5 3 1 5 3 3 2 1 2 4 3 6 7 7 7 7 6 5 6 8 7 8 9 7 7 8